EW9842 Weather Reports


time (UTC)temp
F
wind
direction
speed
knots
gust
knots
rain 1hr
in
rain 24hr
in
rain mn
in
humidity
%
barometer
mb
20260831184535 70 249 1.7 5.2 0.00 0.00 0.00 54 1016.3
20260831183031 69 290 1.7 6.1 0.00 0.00 0.00 56 1016.5
20260831181536 68 295 1.7 6.1 0.00 0.00 0.00 57 1016.7
20260831174536 66 295 0.9 5.2 0.00 0.00 0.00 58 1017.1
20260831173109 65 282 0.9 5.2 0.00 0.00 0.00 59 1017.2
20260831171534 64 289 0.9 4.3 0.00 0.00 0.00 61 1017.3
20260831170036 63 277 1.7 4.3 0.00 0.00 0.00 61 1017.5
20260831164532 62 274 0.0 4.3 0.00 0.00 0.00 64 1017.7
20260831163035 61 290 0.9 4.3 0.00 0.00 0.00 68 1017.8
20260831161659 58 294 0.0 3.5 0.00 0.00 0.00 73 1017.8
20260831160033 57 132 0.0 0.0 0.00 0.00 0.00 75 1017.9
20260831154532 55 135 0.0 1.7 0.00 0.00 0.00 81 1017.9
20260831153034 52 136 0.9 2.6 0.00 0.00 0.00 86 1017.9
20260831151530 49 137 1.7 3.5 0.00 0.00 0.00 91 1017.9
20260831150035 46 149 1.7 4.3 0.00 0.00 0.00 92 1017.9
20260831144533 45 149 2.6 4.3 0.00 0.00 0.00 93 1017.8
20260831143033 44 155 3.5 5.2 0.00 0.00 0.00 93 1017.6
20260831141532 43 145 2.6 5.2 0.00 0.00 0.00 93 1017.6
20260831140036 43 153 2.6 4.3 0.00 0.00 0.00 93 1017.5
20260831134534 43 152 3.5 5.2 0.00 0.00 0.00 93 1017.5
20260831133033 43 157 3.5 4.3 0.00 0.00 0.00 92 1017.4
20260831131533 43 145 3.5 5.2 0.00 0.00 0.00 92 1017.5
20260831130034 44 153 3.5 5.2 0.00 0.00 0.00 92 1017.6
20260831124612 44 157 3.5 5.2 0.00 0.00 0.00 91 1017.5
20260831123034 44 168 3.5 5.2 0.00 0.00 0.00 91 1017.4
20260831121536 44 161 2.6 4.3 0.00 0.00 0.00 91 1017.4
20260831120110 44 160 3.5 4.3 0.00 0.00 0.00 91 1017.5
20260831113033 45 153 2.6 5.2 0.00 0.00 0.00 90 1017.6
20260831111536 45 149 2.6 5.2 0.00 0.00 0.00 90 1017.6
20260831110036 46 147 3.5 5.2 0.00 0.00 0.00 90 1017.7
20260831104536 45 157 3.5 5.2 0.00 0.00 0.00 90 1017.7
20260831103035 45 154 2.6 4.3 0.00 0.00 0.00 89 1017.8
20260831101534 46 156 3.5 4.3 0.00 0.00 0.00 89 1017.8
20260831100034 46 153 3.5 5.2 0.00 0.00 0.00 89 1017.9
20260831094534 46 155 3.5 5.2 0.00 0.00 0.00 89 1018.1
20260831093031 46 150 2.6 5.2 0.00 0.00 0.00 88 1018.2
20260831091537 47 154 2.6 3.5 0.00 0.00 0.00 88 1018.3
20260831090035 47 152 2.6 4.3 0.00 0.00 0.00 89 1018.3
20260831084534 47 153 2.6 4.3 0.00 0.00 0.00 89 1018.4
20260831083033 46 152 2.6 4.3 0.00 0.00 0.00 89 1018.6
20260831081535 47 149 2.6 4.3 0.00 0.00 0.00 88 1018.7
20260831080035 47 148 2.6 4.3 0.00 0.00 0.00 88 1018.8
20260831074535 48 155 2.6 4.3 0.00 0.00 0.00 88 1018.8
20260831073033 48 153 2.6 5.2 0.00 0.00 0.00 88 1018.8
20260831070035 48 143 2.6 4.3 0.00 0.00 0.00 87 1019.0
20260831064533 49 148 2.6 4.3 0.00 0.00 0.00 86 1019.0
20260831063031 49 157 2.6 4.3 0.00 0.00 0.00 85 1019.1
20260831061532 49 159 2.6 4.3 0.00 0.00 0.00 85 1019.2
20260831053036 50 150 1.7 3.5 0.00 0.00 0.00 83 1019.5
20260831050036 51 144 2.6 4.3 0.00 0.00 0.00 82 1019.7
20260831044535 52 156 2.6 5.2 0.00 0.00 0.00 81 1019.8
20260831043035 52 156 2.6 4.3 0.00 0.00 0.00 81 1019.8
20260831041542 52 158 3.5 4.3 0.00 0.00 0.00 81 1019.8
20260831040036 52 157 4.3 5.2 0.00 0.00 0.00 81 1019.7
20260831034534 52 158 3.5 5.2 0.00 0.00 0.00 80 1019.6
20260831033035 54 157 1.7 2.6 0.00 0.00 0.00 76 1019.6
20260831031537 57 157 1.7 2.6 0.00 0.00 0.00 70 1019.5
20260831030030 60 307 1.7 4.3 0.00 0.00 0.00 61 1019.6
20260831024610 62 312 3.5 8.7 0.00 0.00 0.00 57 1019.5
20260831023110 63 307 3.5 7.8 0.00 0.00 0.00 55 1019.4
20260831021608 64 316 4.3 9.6 0.00 0.00 0.00 53 1019.5
20260831020109 65 321 4.3 7.8 0.00 0.00 0.00 51 1019.4
20260831014535 66 314 3.5 9.6 0.00 0.00 0.00 50 1019.5
20260831013030 67 313 3.5 8.7 0.00 0.00 0.00 48 1019.6
20260831011530 68 296 5.2 10.4 0.00 0.00 0.00 45 1019.6
20260831010035 71 285 4.3 9.6 0.00 0.00 0.00 42 1019.6
20260831000037 74 328 3.5 11.3 0.00 0.00 0.00 42 1019.6
20260830234537 75 335 4.3 10.4 0.00 0.00 0.00 41 1019.7
20260830231609 74 324 4.3 10.4 0.00 0.00 0.00 41 1019.7
20260830230035 74 339 4.3 9.6 0.00 0.00 0.00 41 1019.9
20260830224537 74 326 5.2 10.4 0.00 0.00 0.00 42 1020.0
20260830223035 74 337 4.3 9.6 0.00 0.00 0.00 42 1020.2
20260830221534 73 333 4.3 8.7 0.00 0.00 0.00 43 1020.5
20260830220032 73 328 5.2 11.3 0.00 0.00 0.00 43 1020.6
20260830213031 72 345 3.5 8.7 0.00 0.00 0.00 44 1021.0
20260830211531 72 351 3.5 7.8 0.00 0.00 0.00 45 1021.1
20260830203035 71 359 3.5 7.8 0.00 0.00 0.00 47 1021.4
20260830200037 68 322 1.7 6.1 0.00 0.00 0.00 47 1021.8
20260830191534 67 313 2.6 6.1 0.00 0.00 0.00 45 1022.0
20260830190109 68 346 0.9 6.1 0.00 0.00 0.00 46 1022.1